Showing default

IRIDIUM 176, 43923

Orbit data source: Space-Track

IRIDIUM 176, 43923 is a payload satellite owned by Iridium (US) in LEO that was launched on Fri, 11 Jan 2019 UTC via an FALCON 9 launch vehicle from the Air Force Western Test Range (AFWTR). Payload-class satellites include a variety of spacecraft equipped with specific instruments for various scientific and technological missions. These include communications satellites like Starlink; space stations such as the ISS; scientific satellites like the Hubble; Earth observation satellites from companies like Planet Labs, Umbra, and HawkEye 360; GPS; miniature CubeSats for education and research; and military/defense satellites.

Loading next visibility...
Identifier
43923, 2019-002B
Orbit
LEO
Country
Flag of USUS
Related business
Manufacturer
NGIS SSG Gilbert
Mission
Operational Commercial Communications
Bus & Motor
ELITEBUS, Unknown motor
Mass
860 kg wet, 700 kg dry
Launch date (UTC)
2019-01-11 (7 years ago)
Launch vehicle
FALCON 9
Launch site
Air Force Western Test Range (AFWTR)
Object type
Payload
Rocket body
Debris
Shape & HBR
Trap Box + 2 Pan, 4.7 m
Radar Cross Section
14.423 m², Large (>1 m²)

Expand to show TLE details & history
Last TLE update: 13 hours ago

TLE from 13 hours ago
0 IRIDIUM 176
1 43923U 19002B   25261.01628574  .00000756  00000-0  11595-3 0  9994
2 43923  86.6050 107.3837 0003007  94.1936 265.9625 14.72248488359201
Epoch: 2025-09-18T00:23Z
TLE epoch observation values (Epoch: 2025-09-18T00:23:27.087Z)
Latitude
-0.00003°
Longitude
104.3369°
Altitude
657.156 km
Speed
7.529 km/s
True Right ascension
07h 09m 32s
True Declination
0° 00' 00"
Sunlit
Object was in daylight at epoch
Visualization orbit readout
Latitude
Unknown
Longitude
Unknown
Altitude
Unknown
Speed
Unknown
Apparent Right ascension
Unknown
Apparent Declination
Unknown
Sunlit
N/A
Visualization observer readout
Local Sidereal Time
06:32:26
Azimuth
Unknown
Elevation
Unknown
Doppler factor
Unknown
Orbital elements
Apogee altitude
652.92 km
Perigee altitude
648.692 km
Semi-major axis
7,028.943 km
Eccentricity
0.0003
Inclination
86.605°
RAAN
107.3837°
Arg. of periapsis
94.1936°
True anomaly
265.92813°
Mean anomaly
265.9625°
Eccentric anomaly
265.94531°
Mean motion
3.68305 °/min
Orbital period
97.74 mins
BSTAR
0.00011595
Loading maneuver chart data...
Computing Atmospheric mass density...
Loading historical data...
Loading historical data...
Loading historical data...
Loading historical data...
Loading historical data...
Loading historical data...
Loading historical data...

Documentation

Showing up to 5 results
|